Vertical_Velocity
-0 -3 -2 -2 -1 -0 -1 -1 -1 1 -0 1 -1 1 -2 2 -1 -3 2 2 -4 1 0 -1 -0 -2 0 2 -2 -3 -5 -0 6 -3 11 -2 -6 1 2 1 1 -1 -1 -3 -5
1 -0 -1 0 -1 -1 1 -1 0 2 1 1 -1 -1 -5 2 1 -8 11 -5 2 -4 -2 0 0 -3 2 0 3 -4 -7 4 7 -0 -2 1 2 -4 -1 1 -0 -1 -2 1 -4
-1 -1 0 -3 -1 -0 -2 -3 2 1 2 1 2 -1 -3 -3 6 -9 -1 -3 1 -1 -3 -1 -2 -1 1 -1 2 0 -4 -0 5 2 -6 1 -0 -1 0 1 -0 -1 -1 2 -5
1 -0 -0 1 -1 -2 1 2 -3 -0 -0 1 2 -1 -2 -0 5 -0 3 -3 0 -1 -4 0 -3 -1 -0 -2 -0 -11 1 -5 10 0 -3 1 -3 5 -5 0 1 -0 -2 1 2
-2 -0 2 -1 -2 -1 -0 -0 2 -2 -2 -1 -1 0 -5 2 18 -33 4 -2 -1 -1 -1 -1 -0 -3 1 -3 -5 -8 1 -4 -1 3 -0 -3 1 1 0 -3 0 -1 -0 -0 0
-0 -1 -0 2 -2 -1 -1 -0 1 1 0 -2 -2 -3 -4 14 -5 -18 4 3 -3 -1 -0 -0 2 -4 -3 -1 -1 -3 -3 -2 -2 1 -1 -4 0 -4 7 -2 0 -3 0 -1 1
-1 -1 -0 0 1 0 -1 -0 2 1 1 -3 -0 -5 -3 12 8 -3 -1 0 2 -1 -2 0 1 -7 3 1 2 -1 -9 -4 4 3 -0 -3 -3 2 1 -1 -0 -1 -2 0 -4
-3 -2 -1 -2 -2 -1 -2 -2 -2 1 2 -2 -4 -8 17 -7 -3 1 -3 1 -1 1 -0 -1 -6 -8 -6 6 -4 0 -7 -8 15 8 3 -1 2 5 -4 -2 -3 1 5 1 -1
-1 -1 -2 0 -3 -3 -2 -1 -1 0 1 1 -3 -7 12 12 -2 4 -1 3 -6 2 1 -3 -4 -3 -1 4 -2 4 -7 -5 2 3 -3 -4 -1 7 5 0 -2 -0 1 -0 3
-2 5 -3 -2 -1 1 -1 -1 -6 5 -3 2 -7 -3 -9 5 -1 -2 -2 -0 -0 -2 -1 -0 -3 -7 -1 -2 -7 5 -5 -4 -6 13 -0 -6 -5 8 3 -8 -2 -5 1 -5 -2
-5 1 -1 1 -4 -0 5 2 -13 -4 2 -0 -8 -2 -8 -3 -6 6 -2 -1 -2 -5 3 4 -22 -4 15 3 5 2 -6 -4 2 -1 18 5 -8 3 3 -0 2 3 -5 -0 -2
-8 -2 0 4 -7 -3 -3 5 -5 -16 -5 -1 11 -18 11 -18 3 10 -9 -2 -3 -3 -2 -7 -16 15 2 1 -1 1 0 2 -2 4 -6 -2 -7 -1 1 3 4 0 2 -6 -2
-2 -5 -4 4 -5 -9 8 -9 1 3 -27 24 1 -2 -4 -0 -2 25 -9 -1 2 -1 -2 -6 13 -3 1 -1 -4 2 -3 7 4 4 -8 1 -7 -4 6 3 2 -1 0 1 -7
-3 -3 -0 3 -7 3 -13 -5 12 -5 -19 -2 -6 -14 5 -0 -9 3 -0 -2 -5 -5 9 -20 10 2 -0 -5 2 -4 11 6 -7 9 -10 15 -19 -6 -1 1 -1 -2 2 -0 6
-6 -3 -1 3 -0 3 -6 -1 -2 3 -11 -2 -33 5 -7 4 -11 -2 4 -5 2 5 0 18 -4 1 -5 8 6 -4 6 2 -2 2 0 4 -22 12 -0 3 4 -3 -5 2 2
-4 -3 -3 12 2 0 -6 8 3 3 -31 17 -12 5 -7 7 2 -19 7 -1 -3 -1 -7 7 4 -3 -3 8 1 2 3 -1 3 3 -37 21 -3 9 1 7 4 12 -6 5 -4
2 -1 1 8 10 7 6 -5 -2 -11 6 10 -2 -5 -4 1 13 -8 -2 -5 -0 -5 1 15 3 7 -2 -2 2 -2 0 1 -1 -17 3 7 -11 4 15 1 9 7 -6 3 0
0 -1 8 9 9 3 5 3 -10 -7 10 30 13 5 -17 12 -4 -5 -5 0 0 -6 4 -3 -9 0 4 -2 6 -3 4 0 0 -4 2 -2 -12 -7 6 5 8 11 -9 -4 2
4 12 8 10 5 6 7 -8 -10 21 20 -14 -15 -11 -5 10 14 -7 5 -5 1 -5 -10 -1 -7 2 -5 3 -3 9 -19 16 0 -0 3 2 -1 5 7 8 3 -1 3 -6 2
3 5 10 6 6 9 -1 -7 -4 13 5 5 2 -7 1 20 -4 -8 8 14 -15 -1 4 -1 18 4 -5 4 -2 -4 18 1 -0 -2 -10 4 16 14 3 13 10 4 1 2 -4
4 -0 4 12 8 -6 -14 8 -2 22 -4 2 7 3 2 11 17 -3 25 19 -5 -7 3 -5 -1 24 -4 -4 4 2 -6 -3 4 -2 -3 2 0 6 10 2 8 7 6 -2 -1
4 2 3 11 -1 1 -6 10 11 6 -1 -1 -1 2 2 5 -2 8 10 2 -10 11 7 -17 1 -6 -3 1 -5 -13 -2 13 2 1 -3 -1 7 13 2 -13 14 5 5 -2 3
2 -2 4 3 -2 1 6 4 1 3 4 -5 3 -2 4 7 -3 11 7 -15 3 -2 -2 8 4 -3 16 8 6 2 8 5 4 6 -5 2 -3 -7 -3 11 15 7 1 -1 4
-2 -2 -1 0 2 -0 4 3 3 2 -0 -3 -1 -1 3 -4 3 5 2 -5 6 -4 4 -3 1 0 3 -3 -5 -1 6 0 0 3 4 -7 -4 7 5 -4 1 4 4 2 3
-3 7 3 13 1 0 4 2 5 -2 -1 -2 -2 -1 2 4 -0 -5 -1 1 3 -4 3 -5 1 -1 5 2 -3 -2 4 4 1 -2 -11 7 -8 8 19 -6 2 -3 3 3 -1
0 6 -2 6 3 3 1 5 -0 2 -3 2 -5 -1 6 -7 -5 -2 8 8 -7 8 1 -6 -6 -1 4 3 3 0 0 2 -1 -3 -8 -10 -6 -1 2 3 6 12 13 11 6
6 5 -3 9 3 -1 5 7 2 0 -1 6 -1 -3 -6 4 2 10 -16 -19 -2 -1 -12 -3 2 3 -0 3 3 -9 7 5 4 0 1 -5 12 3 3 6 -4 -4 9 4 4
Height
5771 5772 5773 5773 5773 5773 5772 5773 5775 5775 5775 5776 5776 5777 5777 5779 5780 5780 5781 5783 5782 5782 5784 5785 5785 5785 5786 5788 5788 5788 5788 5788 5789 5789 5793 5787 5783 5783 5781 5778 5775 5772 5767 5765 5760
5762 5762 5762 5764 5764 5765 5764 5764 5765 5765 5766 5767 5767 5768 5768 5771 5772 5774 5773 5776 5775 5777 5777 5778 5778 5778 5780 5782 5781 5782 5782 5784 5783 5783 5782 5782 5782 5778 5776 5774 5771 5769 5763 5760 5758
5752 5752 5753 5754 5754 5755 5755 5756 5756 5756 5756 5757 5757 5759 5760 5761 5764 5764 5767 5766 5769 5770 5770 5771 5772 5772 5773 5774 5776 5775 5777 5779 5778 5775 5775 5776 5776 5775 5773 5771 5767 5765 5761 5759 5753
5741 5741 5741 5742 5743 5743 5745 5745 5746 5746 5746 5747 5748 5749 5751 5751 5754 5756 5757 5760 5759 5761 5764 5764 5765 5765 5766 5767 5769 5765 5770 5773 5774 5770 5770 5770 5770 5771 5768 5767 5765 5762 5757 5756 5753
5728 5730 5730 5730 5731 5732 5732 5734 5734 5734 5734 5736 5737 5739 5740 5744 5744 5744 5749 5749 5752 5752 5754 5757 5757 5758 5758 5760 5761 5759 5764 5764 5765 5765 5765 5765 5765 5763 5765 5761 5760 5758 5754 5751 5749
5715 5716 5717 5718 5718 5718 5721 5721 5721 5722 5723 5724 5726 5728 5730 5733 5733 5734 5738 5740 5741 5743 5746 5747 5749 5749 5749 5751 5753 5755 5754 5757 5758 5759 5758 5758 5759 5756 5761 5756 5755 5753 5750 5748 5746
5704 5702 5702 5704 5705 5705 5707 5707 5708 5709 5710 5711 5713 5715 5720 5721 5722 5724 5728 5730 5732 5734 5736 5738 5739 5740 5742 5744 5747 5746 5746 5750 5752 5754 5752 5752 5751 5753 5753 5752 5751 5748 5745 5743 5741
5690 5691 5692 5691 5692 5693 5693 5694 5695 5696 5698 5698 5700 5703 5709 5708 5710 5712 5716 5719 5721 5724 5726 5728 5730 5731 5732 5736 5736 5738 5740 5741 5749 5746 5747 5746 5746 5748 5743 5747 5745 5744 5743 5740 5737
5680 5679 5678 5678 5680 5681 5681 5682 5683 5685 5687 5687 5687 5690 5696 5697 5699 5702 5705 5708 5710 5712 5715 5718 5719 5722 5725 5725 5726 5727 5730 5735 5740 5741 5738 5738 5739 5744 5738 5741 5740 5739 5737 5735 5734
5668 5668 5668 5667 5667 5669 5670 5670 5670 5672 5675 5675 5675 5679 5684 5685 5688 5691 5693 5696 5698 5701 5704 5706 5709 5714 5713 5713 5717 5721 5724 5728 5730 5737 5733 5731 5732 5737 5735 5732 5735 5733 5733 5731 5729
5655 5654 5654 5656 5654 5655 5658 5659 5658 5661 5663 5666 5665 5671 5670 5672 5677 5680 5681 5684 5687 5690 5694 5696 5699 5700 5705 5707 5711 5712 5714 5716 5722 5726 5729 5727 5723 5729 5730 5730 5731 5731 5727 5729 5726
5638 5639 5639 5642 5641 5642 5642 5642 5646 5646 5650 5655 5659 5658 5664 5661 5668 5669 5669 5673 5677 5681 5683 5683 5688 5695 5695 5697 5699 5702 5705 5707 5712 5715 5717 5716 5717 5721 5724 5726 5727 5727 5726 5725 5722
5618 5621 5623 5623 5624 5628 5628 5626 5632 5630 5634 5645 5647 5651 5652 5651 5658 5662 5659 5663 5667 5670 5671 5673 5682 5683 5685 5685 5687 5692 5696 5699 5701 5703 5706 5708 5705 5713 5719 5719 5720 5722 5720 5722 5717
5600 5601 5604 5606 5607 5611 5608 5616 5617 5617 5617 5631 5632 5640 5643 5642 5644 5649 5651 5654 5657 5660 5661 5665 5670 5672 5673 5675 5680 5681 5688 5688 5690 5694 5696 5702 5697 5704 5712 5712 5713 5715 5715 5717 5715
5579 5580 5584 5584 5587 5593 5594 5602 5600 5604 5602 5616 5615 5625 5631 5633 5635 5638 5642 5643 5648 5650 5650 5658 5659 5662 5663 5667 5671 5672 5678 5679 5681 5684 5687 5693 5692 5697 5706 5707 5710 5708 5708 5711 5711
5555 5556 5561 5564 5570 5573 5578 5584 5587 5590 5587 5608 5601 5609 5614 5620 5625 5626 5633 5633 5636 5637 5638 5645 5649 5651 5654 5658 5662 5665 5670 5671 5674 5677 5677 5684 5686 5688 5698 5704 5705 5707 5704 5706 5704
5526 5529 5537 5543 5551 5557 5564 5566 5572 5573 5591 5596 5591 5596 5601 5608 5612 5616 5621 5623 5626 5627 5629 5635 5637 5642 5645 5648 5653 5656 5660 5665 5668 5667 5671 5678 5678 5682 5692 5695 5699 5695 5699 5701 5701
5497 5505 5518 5528 5534 5540 5546 5551 5554 5571 5579 5585 5584 5583 5591 5598 5601 5606 5610 5613 5615 5618 5620 5621 5626 5631 5635 5641 5648 5650 5654 5659 5662 5665 5666 5668 5668 5676 5684 5687 5693 5691 5694 5694 5696
5477 5492 5503 5513 5520 5527 5531 5534 5549 5560 5565 5563 5568 5573 5582 5586 5593 5596 5601 5604 5606 5608 5611 5613 5616 5625 5628 5631 5638 5644 5643 5654 5656 5660 5659 5662 5667 5672 5676 5680 5681 5686 5689 5688 5692
5476 5484 5495 5502 5508 5514 5518 5531 5539 5545 5547 5554 5560 5568 5574 5584 5581 5586 5593 5596 5596 5601 5604 5608 5612 5616 5617 5625 5630 5635 5642 5644 5647 5650 5654 5659 5662 5665 5668 5672 5675 5679 5681 5683 5684
5475 5482 5489 5497 5500 5504 5514 5523 5527 5533 5535 5546 5552 5556 5562 5569 5573 5577 5586 5589 5588 5595 5598 5600 5607 5611 5614 5619 5624 5627 5630 5635 5641 5644 5648 5653 5654 5657 5662 5666 5667 5670 5674 5675 5678
5475 5480 5486 5491 5494 5500 5507 5512 5517 5521 5527 5533 5539 5544 5551 5557 5563 5565 5573 5573 5577 5587 5592 5592 5600 5607 5608 5613 5615 5617 5624 5629 5633 5639 5643 5647 5652 5651 5655 5656 5660 5663 5666 5669 5674
5473 5477 5482 5485 5490 5494 5499 5504 5508 5513 5518 5522 5528 5534 5541 5548 5552 5558 5558 5563 5572 5577 5582 5590 5596 5600 5602 5608 5612 5614 5620 5623 5626 5632 5634 5640 5647 5648 5649 5650 5654 5659 5661 5665 5669
5471 5474 5479 5482 5485 5489 5493 5497 5501 5505 5509 5513 5519 5523 5529 5534 5541 5547 5550 5554 5564 5570 5574 5580 5586 5593 5600 5598 5600 5606 5612 5614 5619 5622 5627 5632 5641 5641 5643 5644 5650 5653 5657 5659 5662
5466 5471 5475 5479 5481 5484 5488 5493 5496 5498 5503 5506 5510 5514 5520 5523 5527 5534 5541 5547 5556 5560 5567 5572 5578 5584 5592 5593 5595 5600 5604 5608 5612 5616 5619 5626 5628 5634 5635 5637 5643 5647 5650 5654 5655
5462 5466 5469 5473 5476 5480 5482 5487 5491 5494 5497 5500 5502 5505 5510 5513 5519 5526 5534 5539 5545 5552 5560 5565 5570 5577 5584 5587 5590 5594 5598 5601 5604 5607 5612 5615 5619 5626 5630 5633 5638 5641 5644 5647 5649
5458 5461 5463 5468 5471 5475 5479 5483 5485 5489 5492 5495 5498 5500 5504 5510 5512 5518 5521 5529 5539 5545 5551 5558 5566 5572 5578 5581 5583 5587 5593 5595 5597 5599 5603 5605 5613 5615 5620 5624 5627 5630 5633 5634 5638